This is the latest recevied weather packets stored in our database for station/object DG9MHV-10. If no packets are shown the sender has not sent any weather packets the latest 10 day(s).
| Time | Temp. | Humidity | Pressure | Rain* | Wind** | Luminosity | Snow |
|---|---|---|---|---|---|---|---|
| 1778017264 | 12.78° C | 100% | 1007.1 hPa | - | - | - | - |
| 1778016364 | 12.78° C | 100% | 1007.1 hPa | - | - | - | - |
| 1778015464 | 12.78° C | 100% | 1006.9 hPa | - | - | - | - |
| 1778014564 | 13.33° C | 100% | 1007.2 hPa | - | - | - | - |
| 1778013664 | 13.33° C | 100% | 1007.2 hPa | - | - | - | - |
| 1778012764 | 13.89° C | 100% | 1007.3 hPa | - | - | - | - |
| 1778011863 | 13.89° C | 100% | 1007.3 hPa | - | - | - | - |
| 1778010963 | 13.33° C | 100% | 1007.1 hPa | - | - | - | - |
| 1778010063 | 13.33° C | 100% | 1007.1 hPa | - | - | - | - |
| 1778009163 | 13.89° C | 100% | 1007 hPa | - | - | - | - |
| 1778008263 | 13.89° C | 100% | 1007.2 hPa | - | - | - | - |
| 1778007363 | 14.44° C | 100% | 1007.3 hPa | - | - | - | - |
| 1778006463 | 14.44° C | 100% | 1007.3 hPa | - | - | - | - |
| 1778005563 | 15° C | 100% | 1007.4 hPa | - | - | - | - |
| 1778004663 | 15.56° C | 100% | 1007.1 hPa | - | - | - | - |
| 1778003763 | 15.56° C | 100% | 1007 hPa | - | - | - | - |
| 1778002863 | 15.56° C | 100% | 1006.7 hPa | - | - | - | - |
| 1778001963 | 16.11° C | 100% | 1007.2 hPa | - | - | - | - |
| 1778001062 | 16.11° C | 100% | 1007.5 hPa | - | - | - | - |
| 1778000162 | 16.67° C | 100% | 1007.4 hPa | - | - | - | - |
| 1777999262 | 16.67° C | 100% | 1007.5 hPa | - | - | - | - |
| 1777998362 | 17.22° C | 100% | 1007.5 hPa | - | - | - | - |
| 1777996574 | 18.89° C | 100% | 1007.3 hPa | - | - | - | - |
| 1777995674 | 18.33° C | 100% | 1007.3 hPa | - | - | - | - |
| 1777994774 | 17.22° C | 100% | 1007.5 hPa | - | - | - | - |
* Rain since midnight (hover to see other rain measurements)
** Current wind speed in m/s (hover to see current wind gust speed)